Regional Weather Roundup
Issued by NWS Goodland, KS

Home | Current Version | Previous Version | Graphics & Text | Print | Product List | Glossary On
Versions: 1 2 3 4 5 6 7 8 9 10 11 12 13 14 15 16 17 18 19 20 21 22 23 24 25 26 27 28 29 30 31 32 33 34 35 36 37 38 39 40 41 42 43 44 45 46 47 48 49 50
000
ASUS43 KGLD 250808
RWRGLD

GOODLAND FORECAST AREA HOURLY WEATHER ROUNDUP
NATIONAL WEATHER SERVICE GOODLAND KS
200 AM MDT SAT OCT 25 2014

...OFFICIAL OBSERVATIONS...

CITY           SKY/WX    TMP DP  RH WIND       PRES   REMARKS
GOODLAND KS    CLEAR     48  36  63 W6        30.13S
HILL CITY KS   CLEAR     47  41  80 CALM      30.05S
IMPERIAL NEB   CLEAR     49  34  56 W5        30.09F
MCCOOK NEB     CLEAR     44  37  76 SW8       30.07S
AKRON CO       CLEAR     51  26  37 W7        30.17R
BURLINGTON CO  CLEAR     46  31  55 W9        30.15S
LIMON CO       CLEAR     37  30  75 N8        30.22S
$$

...UNOFFICIAL OBSERVATIONS...

CITY           SKY/WX    TMP DP  RH WIND       PRES   REMARKS
COLBY KS       CLEAR     52  39  62 W7        30.09S
NORTON KS      CLEAR     48  36  61 CALM      30.04F
SHARON SPRINGS   N/A     51  36  57 W5          N/A
KIT CARSON CO    N/A     46  32  58 CALM        N/A
YUMA CO          N/A     41  30  65 W6          N/A
$$



USA.gov is the U.S. government's official web portal to all federal, state and local government web resources and services.